Banff, Alberta

7:56 PM MST on November 23, 2017 (GMT -0700)
Banff

Weather History for CWZG - November, 2012

Change the Weather History Date:

Sunday, November 4, 2012

  Actual Average Record
Temperature  
Mean Temperature 38 °F -  
Max Temperature 47 °F - - ()
Min Temperature 29 °F - - ()
Degree Days  
Heating Degree Days 27    
Moisture  
Dew Point 31 °F    
Average Humidity 78    
Maximum Humidity 93    
Minimum Humidity 60    
Precipitation  
Precipitation 0.00 in - - ()
Sea Level Pressure  
Sea Level Pressure 30.17 in    
Wind  
Wind Speed 5 mph ()    
Max Wind Speed 14 mph    
Max Gust Speed 24 mph    
T = Trace of Precipitation, MM = Missing Value Source: Averaged Metar Reports

Daily Weather History Graph

Daily Weather History Graph

Search for Another Location

Airport or City:

Trip Planner

Search our weather history database for the weather conditions in past years. The results will help you decide how hot, cold, wet, or windy it might be!

Date:

Astronomy

Nov. 04, 2012 Rise Set
Actual Time 7:41 AM MST 5:09 PM MST
Civil Twilight 7:05 AM MST 5:44 PM MST
Nautical Twilight 6:26 AM MST 6:24 PM MST
Astronomical Twilight 5:47 AM MST 7:02 PM MST
Moon 9:46 PM MST (11/4) 12:34 PM MST (11/4)
Length of Visible Light 10h 39m
Length of Day
9h 28m
Waning Gibbous, 71% of the Moon is Illuminated
Nov 4
Waning Gibbous
Nov 6
Last Quarter
Nov 13
New
Nov 20
First Quarter
Nov 28
Full

Hourly Weather History & Observations

Time (MST) Temp. Windchill Dew Point Humidity Pressure Visibility Wind Dir Wind Speed Gust Speed Precip Events Conditions
12:00 AM 36.1 °F - 32.9 °F 88% 30.05 in - West 2.3 mph - N/A   Unknown
1:00 AM 35.4 °F - 32.9 °F 91% 30.07 in - SW 2.3 mph - N/A   Unknown
1:00 AM 33.8 °F 29.6 °F 31.6 °F 92% 30.10 in - WSW 4.6 mph - N/A   Unknown
2:00 AM 33.4 °F 28.1 °F 30.9 °F 90% 30.14 in - SW 5.8 mph - N/A   Unknown
3:00 AM 33.6 °F 29.4 °F 30.7 °F 89% 30.17 in - WSW 4.6 mph - N/A   Unknown
4:00 AM 31.8 °F - 29.7 °F 92% 30.20 in - WSW 2.3 mph - N/A   Unknown
5:00 AM 32.0 °F - 29.3 °F 90% 30.22 in - SSW 1.2 mph - N/A   Unknown
6:00 AM 30.7 °F 24.9 °F 28.8 °F 92% 30.25 in - WSW 5.8 mph - N/A   Unknown
7:00 AM 31.5 °F 28.1 °F 29.5 °F 92% 30.25 in - WSW 3.5 mph - N/A   Unknown
8:00 AM 29.5 °F 24.5 °F 27.7 °F 93% 30.27 in - SW 4.6 mph - N/A   Unknown
9:00 AM 32.0 °F 26.4 °F 29.3 °F 90% 30.27 in - SW 5.8 mph - N/A   Unknown
10:00 AM 35.8 °F 29.4 °F 30.4 °F 81% 30.27 in - SW 8.1 mph - N/A   Unknown
11:00 AM 37.4 °F 30.8 °F 30.6 °F 76% 30.26 in - WSW 9.2 mph - N/A   Unknown
12:00 PM 39.7 °F 33.7 °F 31.5 °F 72% 30.24 in - SW 9.2 mph - N/A   Unknown
1:00 PM 41.2 °F 35.5 °F 31.8 °F 69% 30.24 in - WSW 9.2 mph - N/A   Unknown
2:00 PM 43.7 °F 39.1 °F 31.6 °F 63% 30.22 in - SW 8.1 mph - N/A   Unknown
3:00 PM 44.4 °F 40.5 °F 31.5 °F 60% 30.19 in - WSW 6.9 mph 17.3 mph N/A   Unknown
4:00 PM 44.4 °F 39.5 °F 31.6 °F 61% 30.18 in - SW 9.2 mph - N/A   Unknown
5:00 PM 44.4 °F 38.6 °F 31.5 °F 60% 30.16 in - WSW 11.5 mph 19.6 mph N/A   Unknown
6:00 PM 42.4 °F 36.5 °F 33.1 °F 69% 30.14 in - WSW 10.4 mph 20.7 mph N/A   Unknown
7:00 PM 44.1 °F 37.7 °F 33.1 °F 65% 30.12 in - SW 12.7 mph 20.7 mph N/A   Unknown
8:00 PM 45.0 °F 38.5 °F 34.2 °F 66% 30.07 in - WSW 13.8 mph 24.2 mph N/A   Unknown
9:00 PM 47.5 °F - 34.9 °F 62% 30.04 in - WSW 11.5 mph 23.0 mph N/A   Unknown
10:00 PM 47.7 °F - 35.6 °F 63% 30.04 in - WSW 13.8 mph 21.9 mph N/A   Unknown